Location: Gro�sch�nbrunn
(49.5760°N, 11.8868°E)
Time: 12:05:29
(UTC+00:00)

USA 116 - Pass Details

Date: 18 September 2020
Orbit: 405 x 834 km, 97.9° (Epoch: 18 November)

Event Time Altitude Azimuth Distance (km) Brightness Sun altitude
Rises 18:16:50 0° 12° (NNE) 2,414 7.0 -10.2°
Reaches altitude 10° 18:18:46 10° 10° (N) 1,576 6.1 -10.5°
Maximum altitude 18:22:07 72° 286° (WNW) 503 3.7 -11.0°
Drops below altitude 10° 18:25:47 10° 202° (SSW) 1,733 6.3 -11.6°
Sets 18:28:00 0° 200° (SSW) 2,683 7.3 -11.9°
